STARLINK-3863, 52465

Orbit data source: Space-Track

STARLINK-3863, 52465 is a payload satellite owned by SpaceX/Seattle (US) in LEO that was launched on Fri, 06 May 2022 UTC via an FALCON 9 launch vehicle from the Air Force Eastern Test Range (AFETR). Payload-class satellites include a variety of spacecraft equipped with specific instruments for various scientific and technological missions. These include communications satellites like Starlink; space stations such as the ISS; scientific satellites like the Hubble; Earth observation satellites from companies like Planet Labs, Umbra, and HawkEye 360; GPS; miniature CubeSats for education and research; and military/defense satellites.

Loading next visibility...
Identifier
52465, 2022-049Q
Orbit
LEO
Country
Flag of USUS
Related business
Manufacturer
SpaceX/Seattle
Mission
Operational Commercial Communications
Bus & Motor
STARLINK, Unknown motor
Mass
297 kg wet, ~220 kg dry
Launch date (UTC)
2022-05-06 (4 years ago)
Launch vehicle
FALCON 9
Launch site
Air Force Eastern Test Range (AFETR)
Object type
Payload
Rocket body
Debris
Shape & HBR
Box + 1 Pan, 10.1 m
Radar Cross Section
13.562 m², Large (>1 m²)

Expand to show TLE details & history
Last TLE update: 1 day ago

TLE from 1 day ago
0 STARLINK-3863
1 52465U 22049Q   25346.56024182 -.00002086  00000-0 -11304-3 0  9997
2 52465  53.2175  80.2580 0001448  94.2049 265.9109 15.08829930199236
Epoch: 2025-12-12T13:26Z
TLE epoch observation values (Epoch: 2025-12-12T13:26:44.893Z)
Latitude
0.00002°
Longitude
157.07085°
Altitude
540.743 km
Speed
7.593 km/s
True Right ascension
05h 21m 01s
True Declination
0° 00' 00"
Sunlit
Object was in full shadow at epoch
Visualization orbit readout
Latitude
Unknown
Longitude
Unknown
Altitude
Unknown
Speed
Unknown
Apparent Right ascension
Unknown
Apparent Declination
Unknown
Sunlit
N/A
Visualization observer readout
Local Sidereal Time
12:53:59
Azimuth
Unknown
Elevation
Unknown
Doppler factor
Unknown
Orbital elements
Apogee altitude
541.021 km
Perigee altitude
539.017 km
Semi-major axis
6,918.156 km
Eccentricity
0.00014
Inclination
53.2175°
RAAN
80.258°
Arg. of periapsis
94.2049°
True anomaly
265.89435°
Mean anomaly
265.9109°
Eccentric anomaly
265.90262°
Mean motion
3.77188 °/min
Orbital period
95.44 mins
BSTAR
-0.00011304
Loading maneuver chart data...
Computing Atmospheric mass density...
Loading historical data...
Loading historical data...
Loading historical data...
Loading historical data...
Loading historical data...
Loading historical data...
Loading historical data...

Documentation

Showing up to 5 results
|